When you browse on this site, cookies collect data to enhance your experience and personalize the content and advertising you see.
Visit our Privacy Policy to learn more. By continuing to use the site, you agree to this use of cookies and data.
  • In Romania
  • List of Countries
  • For 7 days
  • Water Temperature
  • Satellite Maps
  • Weather Map
  • Weather Widgets
  • user-avatar
    Login

    Hourly Weather Hamar

    Today, 21 July, Sunday

    Time Temperature Precipitation Wind Pressure Humidity
    00:00 +14°C° 0 mm 0 mps 741 mmHg 77%
    01:00 +13°C° 0 mm 0 mps 741 mmHg 78%
    02:00 +13°C° 0.1 mm 0 mps 740 mmHg 81%
    03:00 +13°C° 0.1 mm 0 mps 740 mmHg 83%
    04:00 +13°C° 0.1 mm 0 mps 740 mmHg 85%
    05:00 +13°C° 1.4 mm 0 mps 740 mmHg 89%
    06:00 +13°C° 1.4 mm 0 mps 740 mmHg 93%
    07:00 +14°C° 1.4 mm 1 mps 739 mmHg 97%
    08:00 +15°C° 2.3 mm 1 mps 739 mmHg 97%
    09:00 +15°C° 2.3 mm 1 mps 739 mmHg 96%
    10:00 +16°C° 2.3 mm 1 mps 739 mmHg 96%
    11:00 +16°C° 1.3 mm 1 mps 739 mmHg 96%
    12:00 +15°C° 1.3 mm 1 mps 739 mmHg 97%
    13:00 +15°C° 1.3 mm 1 mps 739 mmHg 97%
    14:00 +15°C° 0.6 mm 1 mps 739 mmHg 97%
    15:00 +15°C° 0.6 mm 1 mps 739 mmHg 98%
    16:00 +15°C° 0.6 mm 1 mps 739 mmHg 98%
    17:00 +14°C° 0.8 mm 1 mps 739 mmHg 98%
    18:00 +14°C° 0.8 mm 1 mps 739 mmHg 98%
    19:00 +14°C° 0.8 mm 1 mps 739 mmHg 98%
    20:00 +14°C° 0.3 mm 1 mps 739 mmHg 98%
    21:00 +14°C° 0.3 mm 1 mps 739 mmHg 98%
    22:00 +14°C° 0.3 mm 1 mps 740 mmHg 97%
    23:00 +14°C° 0.4 mm 1 mps 740 mmHg 97%

    Tomorrow, 22 July, Monday

    Time Temperature Precipitation Wind Pressure Humidity
    00:00 +14°C° 0.4 mm 1 mps 740 mmHg 97%
    01:00 +13°C° 0.4 mm 1 mps 740 mmHg 97%
    02:00 +13°C° 0.2 mm 1 mps 740 mmHg 97%
    03:00 +13°C° 0.2 mm 1 mps 741 mmHg 97%
    04:00 +12°C° 0.2 mm 1 mps 741 mmHg 98%
    05:00 +13°C° 0 mm 1 mps 741 mmHg 96%
    06:00 +14°C° 0 mm 1 mps 741 mmHg 95%
    07:00 +14°C° 0 mm 0 mps 741 mmHg 93%
    08:00 +15°C° 0 mm 0 mps 741 mmHg 87%
    09:00 +17°C° 0 mm 0 mps 741 mmHg 81%
    10:00 +18°C° 0 mm 0 mps 742 mmHg 75%
    11:00 +21°C° 0.1 mm 1 mps 742 mmHg 70%
    12:00 +23°C° 0.1 mm 1 mps 741 mmHg 64%
    13:00 +24°C° 0.1 mm 2 mps 741 mmHg 58%
    14:00 +24°C° 0.1 mm 2 mps 741 mmHg 58%
    15:00 +24°C° 0.1 mm 3 mps 741 mmHg 58%
    16:00 +22°C° 0.1 mm 4 mps 741 mmHg 58%
    17:00 +21°C° 0.1 mm 3 mps 741 mmHg 67%
    18:00 +19°C° 0.1 mm 3 mps 741 mmHg 76%
    19:00 +17°C° 0.1 mm 2 mps 740 mmHg 85%
    20:00 +17°C° 0.2 mm 2 mps 740 mmHg 89%
    21:00 +16°C° 0.2 mm 2 mps 740 mmHg 94%
    22:00 +16°C° 0.2 mm 2 mps 740 mmHg 98%
    23:00 +16°C° 0 mm 1 mps 740 mmHg 98%

    Day after tomorrow, 23 July, Tuesday

    Time Temperature Precipitation Wind Pressure Humidity
    00:00 +16°C° 0 mm 1 mps 740 mmHg 98%
    01:00 +16°C° 0 mm 1 mps 740 mmHg 98%
    02:00 +16°C° 0 mm 1 mps 740 mmHg 98%
    03:00 +16°C° 0 mm 1 mps 740 mmHg 98%
    04:00 +14°C° 0 mm 0 mps 740 mmHg 98%
    05:00 +15°C° 0 mm 0 mps 741 mmHg 96%
    06:00 +16°C° 0 mm 0 mps 741 mmHg 93%
    07:00 +17°C° 0 mm 0 mps 741 mmHg 91%
    08:00 +20°C° 0 mm 1 mps 741 mmHg 81%
    09:00 +22°C° 0 mm 1 mps 742 mmHg 72%
    10:00 +24°C° 0 mm 1 mps 742 mmHg 63%
    11:00 +25°C° 0 mm 1 mps 742 mmHg 58%
    12:00 +26°C° 0 mm 1 mps 742 mmHg 53%
    13:00 +28°C° 0 mm 1 mps 742 mmHg 48%
    14:00 +28°C° 0 mm 1 mps 742 mmHg 48%
    15:00 +28°C° 0 mm 1 mps 742 mmHg 49%
    16:00 +28°C° 0 mm 2 mps 742 mmHg 50%
    17:00 +27°C° 0 mm 2 mps 742 mmHg 54%
    18:00 +26°C° 0 mm 1 mps 742 mmHg 59%
    19:00 +26°C° 0 mm 1 mps 742 mmHg 63%
    20:00 +24°C° 0 mm 1 mps 742 mmHg 68%
    21:00 +22°C° 0 mm 1 mps 742 mmHg 72%
    22:00 +20°C° 0 mm 1 mps 742 mmHg 77%
    23:00 +20°C° 0 mm 1 mps 742 mmHg 76%

    24 July, Wednesday

    Time Temperature Precipitation Wind Pressure Humidity
    00:00 +19°C° 0 mm 1 mps 743 mmHg 76%
    01:00 +19°C° 0 mm 1 mps 743 mmHg 75%
    02:00 +19°C° 0 mm 1 mps 743 mmHg 76%
    03:00 +19°C° 0 mm 1 mps 743 mmHg 76%
    04:00 +18°C° 0 mm 1 mps 743 mmHg 76%
    05:00 +20°C° 0 mm 1 mps 743 mmHg 73%
    06:00 +21°C° 0 mm 1 mps 743 mmHg 69%
    07:00 +22°C° 0 mm 1 mps 744 mmHg 66%
    08:00 +24°C° 0 mm 1 mps 744 mmHg 61%
    09:00 +25°C° 0 mm 1 mps 744 mmHg 56%
    10:00 +27°C° 0 mm 1 mps 744 mmHg 50%
    11:00 +28°C° 0 mm 1 mps 744 mmHg 48%
    12:00 +29°C° 0 mm 1 mps 744 mmHg 45%
    13:00 +30°C° 0 mm 1 mps 745 mmHg 42%
    14:00 +30°C° 0 mm 1 mps 744 mmHg 41%
    15:00 +30°C° 0 mm 1 mps 744 mmHg 40%
    16:00 +31°C° 0 mm 1 mps 744 mmHg 40%
    17:00 +30°C° 0 mm 1 mps 744 mmHg 45%
    18:00 +29°C° 0 mm 1 mps 744 mmHg 51%
    19:00 +28°C° 0 mm 1 mps 744 mmHg 56%
    20:00 +26°C° 0 mm 1 mps 744 mmHg 64%
    21:00 +23°C° 0 mm 1 mps 745 mmHg 71%
    22:00 +21°C° 0 mm 1 mps 745 mmHg 78%
    23:00 +20°C° 0 mm 1 mps 745 mmHg 81%

    25 July, Thursday

    Time Temperature Precipitation Wind Pressure Humidity
    00:00 +19°C° 0 mm 1 mps 746 mmHg 84%
    01:00 +17°C° 0 mm 0 mps 746 mmHg 87%
    02:00 +16°C° 0 mm 0 mps 746 mmHg 88%
    03:00 +18°C° 0 mm 1 mps 746 mmHg 89%
    04:00 +18°C° 0 mm 1 mps 746 mmHg 91%
    05:00 +19°C° 0 mm 1 mps 746 mmHg 85%
    06:00 +20°C° 0 mm 1 mps 746 mmHg 79%
    07:00 +21°C° 0 mm 1 mps 746 mmHg 73%
    08:00 +23°C° 0 mm 1 mps 746 mmHg 68%
    09:00 +24°C° 0 mm 2 mps 746 mmHg 62%
    10:00 +26°C° 0 mm 2 mps 747 mmHg 57%
    11:00 +27°C° 0 mm 2 mps 747 mmHg 54%
    12:00 +28°C° 0 mm 3 mps 747 mmHg 52%
    13:00 +30°C° 0 mm 3 mps 747 mmHg 49%
    14:00 +30°C° 0 mm 3 mps 747 mmHg 50%
    15:00 +30°C° 0 mm 3 mps 746 mmHg 51%
    16:00 +30°C° 0 mm 3 mps 746 mmHg 53%
    17:00 +29°C° 0 mm 3 mps 746 mmHg 57%
    18:00 +28°C° 0 mm 3 mps 746 mmHg 61%
    19:00 +27°C° 0 mm 3 mps 746 mmHg 66%
    20:00 +25°C° 0 mm 2 mps 747 mmHg 73%
    21:00 +23°C° 0 mm 2 mps 747 mmHg 81%
    22:00 +21°C° 0 mm 1 mps 747 mmHg 89%
    23:00 +20°C° 0 mm 1 mps 747 mmHg 91%

    26 July, Friday

    Time Temperature Precipitation Wind Pressure Humidity
    00:00 +20°C° 0 mm 1 mps 748 mmHg 93%
    01:00 +19°C° 0 mm 1 mps 748 mmHg 95%
    02:00 +19°C° 0 mm 1 mps 748 mmHg 96%
    03:00 +16°C° 0 mm 0 mps 748 mmHg 97%
    04:00 +16°C° 0 mm 0 mps 747 mmHg 97%
    05:00 +17°C° 0 mm 0 mps 747 mmHg 91%
    06:00 +21°C° 0 mm 1 mps 747 mmHg 85%
    07:00 +23°C° 0 mm 1 mps 747 mmHg 79%
    08:00 +25°C° 0 mm 1 mps 747 mmHg 70%
    09:00 +26°C° 0 mm 1 mps 747 mmHg 61%
    10:00 +28°C° 0 mm 2 mps 747 mmHg 53%
    11:00 +29°C° 0 mm 2 mps 747 mmHg 47%
    12:00 +31°C° 0 mm 3 mps 747 mmHg 42%
    13:00 +33°C° 0 mm 3 mps 747 mmHg 36%
    14:00 +33°C° 0 mm 3 mps 746 mmHg 36%
    15:00 +33°C° 0 mm 3 mps 746 mmHg 36%
    16:00 +33°C° 0 mm 3 mps 746 mmHg 37%
    17:00 +31°C° 0 mm 2 mps 746 mmHg 43%
    18:00 +30°C° 0 mm 2 mps 745 mmHg 49%
    19:00 +29°C° 0 mm 1 mps 745 mmHg 55%
    20:00 +27°C° 0 mm 1 mps 745 mmHg 63%
    21:00 +24°C° 0 mm 1 mps 745 mmHg 70%
    22:00 +22°C° 0 mm 1 mps 745 mmHg 77%
    23:00 +21°C° 0 mm 1 mps 745 mmHg 78%
    Show more